Location: Courcelles
(49.2596°N, 1.7419°E)
Time: 20:52:27
(UTC+00:00)

ERS-1 - Pass Details

Date: 17 November 2025
Orbit: 737 x 784 km, 98.8° (Epoch: 05 December)

Event Time Altitude Azimuth Distance (km) Brightness Sun altitude
Rises 17:10:51 0° 156° (SSE) 3,255 7.7 -10.1°
Reaches altitude 10° 17:13:10 10° 154° (SSE) 2,327 6.9 -10.5°
Maximum altitude 17:18:16 70° 71° (ENE) 825 4.5 -11.3°
Drops below altitude 10° 17:23:21 10° 349° (N) 2,318 7.0 -12.1°
Sets 17:25:40 0° 347° (NNW) 3,241 7.7 -12.4°
